CAPE
921 1029 932 807 743 740 838 1060 1178 1175 1169 1156 1115 1117 1106 1065 968 885 828 964 1434 1483 1425 939 793 997 1078 770 461 406 432 406 381 308 327 465 757 898 301 9 165 305 331
966 1163 1078 1026 956 919 928 990 1153 1241 1294 1358 1368 1378 1395 1335 1258 1207 1159 1161 1317 1491 1557 1271 1084 1057 1149 947 577 314 226 217 254 252 391 414 365 767 460 146 333 221 362
978 1212 1267 1187 1182 1153 1128 1147 1159 1221 1240 1244 1278 1305 1339 1353 1307 1316 1200 1086 1082 1283 1426 1378 1443 1326 1316 1009 591 365 304 287 271 277 378 269 494 690 621 99 218 304 448
1007 1013 1112 1118 1079 1005 940 926 929 875 778 775 855 978 1127 1271 1300 1260 1200 1133 1107 1222 1409 1443 1438 1164 1020 1060 847 576 432 339 331 332 253 504 576 669 760 283 362 484 551
453 437 518 524 551 529 477 395 294 177 117 80 152 278 403 605 875 1031 1048 1103 1168 1241 1287 1425 1332 1092 728 621 705 634 461 367 335 309 283 567 705 700 852 470 456 530 489
139 102 133 171 174 168 122 50 1 0 0 0 0 0 2 40 104 142 334 726 997 1166 1245 1196 1099 1044 856 666 566 580 504 427 385 281 243 488 794 810 841 569 406 406 474
24 4 21 36 32 10 0 0 0 0 0 0 0 0 0 0 0 0 212 196 54 247 651 982 1043 1048 963 835 718 597 510 482 443 355 315 384 707 912 950 638 379 376 402
0 0 0 0 0 0 0 0 0 0 0 0 0 0 0 0 0 0 0 0 0 0 0 0 42 230 642 919 910 803 690 578 509 383 336 306 395 986 1154 836 472 363 335
0 0 0 0 0 0 0 0 0 0 0 0 0 0 0 0 0 0 0 0 0 0 0 0 0 0 192 414 536 644 761 754 684 557 452 368 382 780 1361 1123 702 419 327
0 0 0 0 0 0 0 0 0 0 0 0 0 0 0 0 0 0 0 0 0 0 0 0 0 0 0 0 0 322 388 630 632 691 669 580 470 544 1355 1322 926 533 394
0 0 0 0 0 0 0 0 0 0 0 0 0 0 0 0 0 0 0 0 0 0 0 0 0 0 0 0 0 0 0 0 0 15 619 727 787 755 1047 1225 1008 634 419
0 0 0 0 0 0 0 0 0 0 0 0 0 0 0 0 0 0 0 0 0 0 0 0 0 0 0 0 0 0 0 0 0 0 22 692 851 944 1162 1109 931 725 467
0 0 0 0 0 0 0 0 0 0 0 0 0 0 0 0 0 0 0 0 0 0 0 0 0 0 0 0 0 0 0 0 0 0 0 11 24 749 1215 959 840 758 590
0 0 0 0 0 0 0 0 0 0 0 0 0 0 0 0 0 0 0 0 0 0 0 0 0 0 0 0 0 0 0 0 0 0 0 0 0 0 472 1069 1004 912 726
0 0 0 0 0 0 0 0 0 0 0 0 0 0 0 0 0 0 0 0 0 0 0 0 0 0 0 0 0 0 0 0 0 0 0 0 0 0 0 605 1107 1061 774
0 0 0 0 0 0 0 0 0 0 0 0 0 0 0 0 0 0 0 0 0 0 0 0 0 0 0 0 0 0 0 0 0 0 0 0 0 0 0 0 149 716 876
0 0 0 0 0 0 0 0 0 0 0 0 0 0 0 0 0 0 0 0 0 0 0 0 0 0 0 0 0 0 0 0 0 0 0 0 0 0 0 0 0 77 333
0 0 0 0 0 0 0 0 0 0 0 0 0 0 0 0 0 0 0 0 0 0 0 0 0 0 0 0 0 0 0 0 0 0 0 0 0 0 0 0 0 0 0
0 0 0 0 0 0 0 0 0 0 0 0 0 0 0 0 0 0 0 0 0 0 0 0 0 0 0 0 0 0 0 0 0 0 0 0 0 0 0 0 0 0 0
0 0 0 0 0 0 0 0 0 0 0 0 0 0 0 0 0 0 0 0 0 0 0 0 0 0 0 0 0 0 0 0 0 0 0 0 0 0 0 0 0 0 0
0 0 0 0 0 0 0 0 0 0 0 0 0 0 0 0 0 0 0 0 0 0 0 0 0 0 0 0 0 0 0 0 0 0 0 0 0 0 0 0 0 0 0
0 0 0 0 0 0 0 0 0 0 0 0 0 0 0 0 0 0 0 0 0 0 0 0 0 0 0 0 0 0 0 0 0 0 0 0 0 0 0 0 0 0 0
0 0 0 0 0 0 0 0 0 0 0 0 0 0 0 0 0 0 0 0 0 0 0 0 0 0 0 0 0 0 0 0 0 0 0 0 0 0 0 0 0 0 0
0 0 0 0 0 0 0 0 0 0 0 0 0 0 0 0 0 0 0 0 0 0 0 0 0 0 0 1 1 1 0 1 1 0 0 0 0 0 0 0 0 0 0
0 0 0 0 0 0 0 0 0 0 0 0 0 0 0 0 0 0 0 0 0 0 0 0 0 0 1 1 1 2 2 1 1 3 1 1 0 0 0 0 0 0 0
0 0 0 0 0 0 0 0 0 0 0 0 0 0 0 0 0 0 0 0 0 0 0 0 0 0 0 0 0 0 0 4 2 3 2 3 3 0 0 0 0 0 0
CIN
-323 -273 -273 -329 -346 -345 -284 -211 -153 -127 -100 -94 -93 -82 -81 -75 -67 -74 -73 -43 -2 -0 -0 -17 -24 -11 -8 -24 -51 -51 -45 -44 -43 -49 -49 -41 -8 0 -48 -140 -81 -48 -38
-338 -248 -258 -271 -277 -283 -261 -224 -152 -106 -74 -55 -52 -45 -31 -30 -30 -16 -22 -22 -4 0 -0 -2 -10 -15 -9 -21 -46 -82 -106 -95 -78 -67 -45 -47 -55 -17 -49 -96 -55 -72 -34
-314 -224 -200 -215 -208 -208 -190 -163 -132 -103 -68 -56 -42 -30 -16 -8 -5 -6 -12 -29 -29 -3 0 -0 -2 -2 -4 -21 -54 -94 -104 -95 -98 -86 -69 -89 -45 -28 -34 -124 -77 -49 -20
-262 -230 -205 -228 -231 -222 -216 -194 -166 -161 -158 -136 -88 -62 -27 -14 -4 -1 -1 -5 -17 -6 -0 -0 -0 -7 -14 -14 -36 -72 -86 -102 -92 -93 -109 -63 -50 -42 -30 -82 -49 -12 -0
-387 -392 -344 -350 -348 -329 -345 -352 -350 -381 -404 -416 -308 -238 -171 -98 -38 -11 -14 -9 -6 -1 0 0 -1 -6 -52 -77 -51 -69 -97 -108 -106 -105 -107 -61 -47 -38 -27 -63 -51 -27 -17
-465 -510 -502 -490 -478 -472 -481 -522 -13 -2 0 0 0 0 -103 -357 -288 -257 -140 -49 -11 -2 -0 -1 -3 -9 -26 -65 -91 -75 -93 -100 -115 -125 -121 -64 -35 -39 -35 -44 -64 -59 -29
-625 -636 -641 -599 -600 -475 0 0 0 0 0 0 0 0 0 0 0 0 -178 -121 -208 -111 -69 -14 -11 -13 -22 -33 -57 -79 -95 -96 -101 -123 -125 -100 -41 -25 -30 -42 -65 -63 -48
0 0 0 0 0 0 0 0 0 0 0 0 0 0 0 0 0 0 0 0 0 0 0 0 -133 -186 -66 -18 -20 -46 -67 -88 -98 -120 -137 -139 -107 -15 -16 -37 -61 -67 -51
0 0 0 0 0 0 0 0 0 0 0 0 0 0 0 0 0 0 0 0 0 0 0 0 0 0 -186 -97 -71 -68 -48 -57 -70 -90 -119 -140 -120 -40 -2 -12 -40 -63 -54
0 0 0 0 0 0 0 0 0 0 0 0 0 0 0 0 0 0 0 0 0 0 0 0 0 0 0 0 0 -135 -121 -57 -67 -59 -79 -91 -105 -85 -3 -2 -22 -48 -53
0 0 0 0 0 0 0 0 0 0 0 0 0 0 0 0 0 0 0 0 0 0 0 0 0 0 0 0 0 0 0 0 0 -320 -89 -82 -72 -54 -13 -7 -13 -34 -50
0 0 0 0 0 0 0 0 0 0 0 0 0 0 0 0 0 0 0 0 0 0 0 0 0 0 0 0 0 0 0 0 0 0 -460 -78 -61 -28 -9 -9 -15 -28 -51
0 0 0 0 0 0 0 0 0 0 0 0 0 0 0 0 0 0 0 0 0 0 0 0 0 0 0 0 0 0 0 0 0 0 0 -55 -67 -57 -10 -5 -13 -16 -35
0 0 0 0 0 0 0 0 0 0 0 0 0 0 0 0 0 0 0 0 0 0 0 0 0 0 0 0 0 0 0 0 0 0 0 0 0 0 -109 -6 -9 -21 -20
0 0 0 0 0 0 0 0 0 0 0 0 0 0 0 0 0 0 0 0 0 0 0 0 0 0 0 0 0 0 0 0 0 0 0 0 0 0 0 -103 -8 -11 -24
0 0 0 0 0 0 0 0 0 0 0 0 0 0 0 0 0 0 0 0 0 0 0 0 0 0 0 0 0 0 0 0 0 0 0 0 0 0 0 0 -234 -34 -4
0 0 0 0 0 0 0 0 0 0 0 0 0 0 0 0 0 0 0 0 0 0 0 0 0 0 0 0 0 0 0 0 0 0 0 0 0 0 0 0 0 -287 -101
0 0 0 0 0 0 0 0 0 0 0 0 0 0 0 0 0 0 0 0 0 0 0 0 0 0 0 0 0 0 0 0 0 0 0 0 0 0 0 0 0 0 0
0 0 0 0 0 0 0 0 0 0 0 0 0 0 0 0 0 0 0 0 0 0 0 0 0 0 0 0 0 0 0 0 0 0 0 0 0 0 0 0 0 0 0
0 0 0 0 0 0 0 0 0 0 0 0 0 0 0 0 0 0 0 0 0 0 0 0 0 0 0 0 0 0 0 0 0 0 0 0 0 0 0 0 0 0 0
0 0 0 0 0 0 0 0 0 0 0 0 0 0 0 0 0 0 0 0 0 0 0 0 0 0 0 0 0 0 0 0 0 0 0 0 0 0 0 0 0 0 0
0 0 0 0 0 0 0 0 0 0 0 0 0 0 0 0 0 0 0 0 0 0 0 0 0 0 0 0 0 0 0 0 0 0 0 0 0 0 0 0 0 0 0
0 0 0 0 0 0 0 0 0 0 0 0 0 0 0 0 0 0 0 0 0 0 0 0 0 0 0 0 0 0 0 0 0 0 0 0 0 0 0 0 0 0 0
0 0 0 0 0 0 0 0 0 0 0 0 0 0 0 0 0 0 0 0 0 0 0 0 0 -0 0 -0 -1 -0 -0 -0 0 0 0 0 0 0 0 0 0 0 0
0 0 0 0 0 0 0 0 0 0 0 0 0 0 0 0 0 0 0 0 0 0 0 0 0 0 -2 -3 -2 -2 -0 -1 -2 0 0 -0 0 0 -0 0 0 0 0
0 0 0 0 0 0 0 0 0 0 0 0 0 0 0 0 0 0 0 0 0 0 0 0 0 -0 -2 -1 -3 -2 -0 0 -0 0 0 0 0 0 0 0 0 0 0
Wind_Speed
8 10 10 11 13 14 15 16 17 17 17 16 16 15 15 16 16 16 16 17 17 18 18 18 18 19 19 19 19 19 19 19 20 21 20 21 20 20 20 22 21 21 20
10 10 10 11 12 13 15 16 17 17 17 17 16 16 15 15 15 16 16 16 17 17 18 18 18 18 18 18 19 19 20 20 20 21 21 21 19 19 18 20 21 20 19
9 9 10 11 12 13 15 16 16 17 17 17 16 16 16 16 16 16 17 17 17 18 18 18 19 18 18 18 19 20 20 21 21 22 22 21 19 18 16 19 19 18 18
8 8 9 11 12 14 15 16 17 17 17 17 17 17 17 17 17 17 18 18 18 18 18 18 18 18 18 18 19 20 21 21 21 22 21 20 21 19 12 16 16 16 16
9 9 9 10 12 13 15 16 17 17 17 17 17 17 17 18 18 19 19 20 20 19 19 18 18 18 18 19 20 20 21 21 21 22 21 20 22 18 12 14 15 14 14
8 9 9 10 12 13 15 16 17 17 17 18 18 18 18 18 19 19 20 20 21 21 21 20 19 19 19 20 20 21 21 22 22 21 21 20 21 16 12 13 13 13 13
8 9 10 11 12 13 14 15 16 17 17 18 18 18 17 18 19 19 19 20 21 22 22 22 22 21 21 21 21 22 23 23 23 21 16 16 17 12 11 11 12 12 12
7 8 10 11 12 13 14 15 16 17 17 17 18 18 18 18 18 19 19 21 21 22 22 23 24 24 24 24 24 25 24 20 17 15 11 10 10 8 8 9 10 10 11
7 8 9 10 11 13 14 15 16 17 17 17 17 17 17 18 18 19 20 21 21 20 20 21 22 23 23 24 25 24 24 24 21 19 15 10 9 8 8 8 9 9 9
6 7 8 9 11 12 13 14 15 17 18 18 18 18 18 19 19 20 20 20 20 21 21 21 22 22 22 23 23 24 25 25 24 21 15 9 6 3 5 6 6 6 7
4 5 6 7 9 11 12 14 15 16 17 18 18 19 19 19 20 20 20 21 21 22 22 23 23 23 23 24 24 24 25 25 26 26 25 3 3 3 1 3 4 5 5
2 4 5 6 8 9 11 13 14 15 17 18 18 19 19 19 20 20 20 21 22 22 23 23 23 24 25 25 26 26 26 27 26 26 25 25 23 15 6 1 1 2 3
1 4 5 5 7 8 10 12 13 15 16 18 18 19 19 19 20 20 21 22 22 23 23 23 24 25 25 26 27 27 28 27 27 27 27 28 28 24 22 8 3 3 2
2 2 3 4 5 7 9 11 12 13 15 17 18 19 19 20 20 21 22 22 23 23 24 25 25 26 27 27 28 28 28 29 29 29 29 30 30 29 26 24 9 7 5
3 2 4 5 5 6 7 9 10 11 14 16 18 19 20 20 20 21 22 23 24 24 25 26 26 27 28 28 29 29 30 30 30 30 30 32 33 33 32 31 30 10 8
4 3 2 5 7 7 7 8 9 10 13 15 17 19 20 20 20 21 22 24 25 26 26 26 27 28 29 29 30 30 30 31 31 31 31 32 32 33 33 34 32 28 15
6 3 3 3 5 7 7 8 8 9 12 14 16 18 19 20 21 22 23 24 25 26 27 27 28 28 30 30 31 31 31 32 31 31 30 30 30 31 31 32 32 31 28
5 4 2 3 3 3 5 7 7 9 11 13 15 17 18 20 21 22 23 25 26 26 27 28 29 30 31 32 33 32 33 30 29 27 28 28 27 30 29 31 32 30 29
7 5 3 4 4 4 6 6 7 8 10 13 15 17 19 20 21 22 24 25 26 27 28 29 30 31 32 34 34 33 31 29 25 27 27 27 28 29 29 32 33 32 33
8 6 4 4 4 5 5 6 6 9 11 13 14 16 18 19 21 22 24 26 28 29 30 31 31 32 33 36 34 33 30 27 22 28 30 27 30 30 31 33 33 34 35
8 7 5 4 4 4 4 5 7 10 11 13 14 16 17 19 21 23 24 26 28 30 31 31 32 34 35 38 35 34 29 27 24 33 30 29 33 33 34 34 36 34 35
11 9 7 6 5 5 5 8 10 8 12 12 14 16 17 19 22 24 26 28 29 30 31 32 33 34 34 37 36 34 36 31 29 34 33 33 36 37 37 38 38 35 37
12 10 8 6 5 6 6 7 8 8 11 13 15 16 18 19 22 24 26 28 29 30 31 32 33 34 36 35 34 33 36 37 44 29 35 37 38 40 39 39 38 40 39
13 9 7 6 6 7 7 7 7 9 10 13 13 15 18 20 22 24 26 28 29 30 31 32 33 33 34 36 33 33 33 35 39 44 36 41 41 41 43 39 43 40 39
13 11 8 7 7 7 7 7 8 10 10 11 13 15 18 21 23 24 26 27 30 30 31 32 33 34 33 34 35 36 35 36 36 42 51 50 46 42 39 45 41 42 40
12 11 9 7 8 8 8 9 9 8 9 11 14 16 19 21 23 25 26 28 29 31 32 33 33 33 34 34 35 35 36 37 41 42 49 51 50 46 46 38 43 42 42
Wind_Direction
53 57 50 38 31 25 28 32 31 31 30 23 16 13 14 16 15 17 17 18 14 23 27 26 29 33 31 22 14 13 11 4 359 0 1 352 345 345 344 342 350 352 0
68 62 49 38 29 26 28 30 31 31 28 25 15 13 8 3 1 359 357 359 1 6 10 19 26 32 26 14 8 3 358 357 354 352 353 356 357 351 355 351 356 1 12
59 43 47 41 29 23 26 29 29 28 23 16 13 8 4 357 349 348 345 346 346 352 2 4 8 18 17 10 7 357 350 342 339 337 339 346 356 358 10 358 2 11 19
44 36 37 35 32 31 31 28 25 20 13 9 2 354 349 345 341 337 335 334 337 342 349 358 4 7 5 3 359 353 345 344 341 338 342 346 344 353 29 18 18 20 24
51 44 33 32 31 31 27 24 21 14 7 5 359 352 346 338 332 328 326 326 327 332 339 346 353 355 354 350 345 345 344 343 341 338 343 349 342 4 36 24 26 31 33
38 46 40 32 27 26 23 21 19 13 10 2 357 349 344 342 336 331 325 324 326 327 330 337 341 342 342 342 339 335 337 335 334 341 343 350 348 16 33 26 29 36 41
65 52 42 34 28 24 23 20 18 13 9 7 358 353 351 346 340 338 338 334 329 329 328 328 331 332 333 333 331 331 327 326 321 321 353 4 7 36 54 46 38 41 43
61 42 32 29 27 28 25 21 17 14 12 10 2 357 354 350 346 346 341 336 334 332 330 327 322 320 317 316 315 299 271 248 237 227 204 196 190 150 106 76 54 47 48
54 45 34 30 29 24 21 21 18 13 11 9 3 2 359 353 350 348 345 341 341 343 342 339 333 325 320 317 279 264 263 260 247 236 222 199 186 178 138 121 121 107 90
45 36 33 27 24 23 21 24 23 18 14 13 4 5 1 355 349 346 343 342 340 336 336 336 334 329 324 313 302 295 290 272 263 245 219 196 184 135 141 126 114 102 107
25 33 26 23 19 21 24 26 23 20 17 16 4 2 3 357 350 347 348 344 339 334 331 328 326 326 317 306 305 306 300 299 301 300 311 347 13 24 91 142 123 115 105
347 13 14 20 21 25 21 24 22 19 16 16 8 2 3 359 357 354 349 344 340 336 331 328 325 323 312 305 303 306 307 306 307 309 319 323 327 343 347 318 162 143 129
350 355 359 20 24 24 18 18 17 14 12 10 5 1 2 359 357 353 348 344 341 338 335 330 327 320 313 310 307 307 306 309 311 314 314 313 316 322 324 331 293 251 211
278 340 8 17 23 16 12 11 13 10 9 6 3 358 356 354 354 349 345 342 341 338 335 333 331 320 313 312 311 311 312 311 311 309 308 306 308 308 313 321 312 278 260
252 294 321 340 355 359 360 1 7 11 8 8 2 357 355 353 351 347 344 341 338 335 334 332 332 324 318 315 315 313 314 313 313 311 308 304 302 303 304 308 314 287 271
224 235 290 316 329 338 348 357 4 11 9 5 1 359 358 359 352 348 343 339 336 332 334 332 329 324 321 318 315 316 316 316 315 315 312 307 306 305 303 304 307 309 294
202 220 272 306 326 330 339 351 4 8 5 2 360 359 359 359 355 350 346 342 338 335 334 334 330 328 322 320 318 319 320 318 317 317 316 315 313 310 307 306 306 307 306
215 224 282 310 317 324 333 343 351 356 356 355 356 356 357 355 353 351 347 344 341 341 337 335 331 327 325 323 320 319 319 320 323 325 325 322 323 319 316 313 309 308 307
207 223 273 297 304 312 320 327 337 347 348 350 350 351 352 352 349 348 346 344 343 342 339 336 333 328 324 320 319 320 321 324 329 330 330 328 326 325 322 317 312 308 305
210 233 258 295 298 305 309 324 336 339 342 344 345 346 349 348 346 346 344 342 341 340 337 335 331 329 326 321 319 322 322 326 332 329 328 329 328 327 323 320 316 309 305
222 230 248 271 295 303 296 302 312 320 330 337 342 345 349 348 344 342 341 341 340 337 335 334 331 328 327 324 321 321 323 326 325 325 328 328 326 325 322 319 315 312 307
230 238 255 272 288 307 310 309 310 319 327 337 343 347 350 346 344 342 342 339 341 338 335 334 332 329 329 330 323 320 314 317 317 318 321 322 321 322 319 316 313 311 309
228 233 244 263 285 303 314 323 323 324 326 330 335 339 341 347 346 345 343 340 340 339 337 335 333 332 329 332 332 328 317 312 311 315 319 320 320 318 317 315 314 308 306
229 238 248 270 287 303 309 309 307 310 315 322 331 338 339 342 343 343 342 341 341 341 339 336 335 333 332 329 330 331 326 319 313 308 313 315 317 316 314 313 309 308 307
231 235 252 272 295 310 315 313 314 319 324 329 332 335 337 340 342 342 343 343 342 341 340 338 337 336 335 332 329 327 325 322 319 313 308 310 311 313 312 310 310 307 305
233 238 252 268 292 309 317 317 316 316 318 322 326 328 331 336 338 341 343 343 342 340 339 338 337 336 335 333 332 330 328 324 319 317 311 311 310 312 310 309 307 307 306